EW7939 Weather Reports


Display with metric or nautical units.
time (UTC)temp
F
wind
direction
speed
MPH
gust
MPH
rain 1hr
in
rain 24hr
in
rain mn
in
humidity
%
barometer
mb
20260901231528 99 188 0.0 5.0 0.00 0.00 0.00 44 1010.5
20260901230028 99 44 0.0 2.0 0.00 0.00 0.00 43 1010.5
20260901224529 99 239 1.0 4.0 0.00 0.00 0.00 42 1010.5
20260901223125 100 242 2.0 6.0 0.00 0.00 0.00 39 1010.6
20260901221525 101 266 3.0 7.0 0.00 0.00 0.00 38 1010.6
20260901220023 100 205 1.0 4.0 0.00 0.00 0.00 40 1010.6
20260901214537 100 239 3.0 10.0 0.00 0.00 0.00 39 1010.7
20260901213021 101 213 3.0 10.0 0.00 0.00 0.00 36 1010.8
20260901211521 101 211 3.0 9.0 0.00 0.00 0.00 36 1010.8
20260901210018 101 246 3.0 10.0 0.00 0.00 0.00 35 1011.0
20260901204517 101 238 3.0 12.0 0.00 0.00 0.00 35 1011.2
20260901203015 101 248 2.0 5.0 0.00 0.00 0.00 39 1011.2
20260901201514 101 227 3.0 9.0 0.00 0.00 0.00 37 1011.4
20260901200016 101 248 4.0 8.0 0.00 0.00 0.00 38 1011.5
20260901194514 101 229 3.0 10.0 0.00 0.00 0.00 36 1011.7
20260901193012 101 284 3.0 8.0 0.00 0.00 0.00 38 1011.8
20260901191520 100 226 3.0 9.0 0.00 0.00 0.00 37 1012.0
20260901190007 99 277 2.0 10.0 0.00 0.00 0.00 41 1012.1
20260901184505 99 244 4.0 10.0 0.00 0.00 0.00 39 1012.2
20260901183002 98 306 3.0 8.0 0.00 0.00 0.00 42 1012.3
20260901181601 97 240 3.0 8.0 0.00 0.00 0.00 42 1012.5
20260901180054 97 272 4.0 8.0 0.00 0.00 0.00 45 1012.7
20260901174550 96 270 3.0 8.0 0.00 0.00 0.00 47 1012.8
20260901173048 95 252 3.0 15.0 0.00 0.00 0.00 49 1012.9
20260901171542 95 247 3.0 10.0 0.00 0.00 0.00 49 1013.1
20260901170039 94 304 3.0 9.0 0.00 0.00 0.00 49 1013.2
20260901164537 93 278 3.0 7.0 0.00 0.00 0.00 53 1013.4
20260901163031 92 267 2.0 10.0 0.00 0.00 0.00 55 1013.4
20260901161527 91 275 2.0 7.0 0.00 0.00 0.00 57 1013.6
20260901160033 89 275 2.0 9.0 0.00 0.00 0.00 58 1013.5
20260901154520 88 265 2.0 7.0 0.00 0.00 0.00 60 1013.7
20260901153024 86 238 2.0 7.0 0.00 0.00 0.00 63 1013.6
20260901151513 84 246 1.0 4.0 0.00 0.00 0.00 69 1013.6
20260901150016 82 250 1.0 7.0 0.00 0.00 0.00 70 1013.7
20260901144510 80 244 3.0 7.0 0.00 0.00 0.00 73 1013.7
20260901143002 78 246 2.0 4.0 0.00 0.00 0.00 81 1013.9
20260901141604 76 234 1.0 4.0 0.00 0.00 0.00 83 1013.9
20260901140100 75 234 1.0 4.0 0.00 0.00 0.00 85 1013.9
20260901134558 73 236 1.0 3.0 0.00 0.00 0.00 87 1014.0
20260901133057 72 235 0.0 3.0 0.00 0.00 0.00 87 1014.0
20260901131556 71 235 0.0 2.0 0.00 0.00 0.00 86 1014.0
20260901130055 70 235 0.0 3.0 0.00 0.00 0.00 85 1013.8
20260901124553 69 235 0.0 0.0 0.00 0.00 0.00 84 1013.8
20260901123054 69 235 0.0 0.0 0.00 0.00 0.00 84 1013.7
20260901121548 69 235 0.0 0.0 0.00 0.00 0.00 83 1013.6
20260901120100 69 235 0.0 0.0 0.00 0.00 0.00 83 1013.3
20260901114542 69 235 0.0 0.0 0.00 0.00 0.00 82 1013.1
20260901113051 69 235 0.0 0.0 0.00 0.00 0.00 82 1012.9
20260901111535 70 235 0.0 0.0 0.00 0.00 0.00 82 1012.8
20260901110039 70 235 0.0 0.0 0.00 0.00 0.00 82 1012.7
20260901104531 70 235 0.0 0.0 0.00 0.00 0.00 82 1012.4
20260901103033 71 235 0.0 0.0 0.00 0.00 0.00 81 1012.4
20260901101529 71 235 0.0 0.0 0.00 0.00 0.00 82 1012.5
20260901100025 71 235 0.0 0.0 0.00 0.00 0.00 81 1012.2
20260901094525 72 235 0.0 0.0 0.00 0.00 0.00 81 1012.1
20260901093025 72 235 0.0 0.0 0.00 0.00 0.00 81 1011.8
20260901091521 72 235 0.0 0.0 0.00 0.00 0.00 81 1011.7
20260901090020 72 235 0.0 0.0 0.00 0.00 0.00 81 1011.8
20260901084516 73 235 0.0 0.0 0.00 0.00 0.00 81 1011.7
20260901083015 73 235 0.0 0.0 0.00 0.00 0.00 80 1011.5
20260901081514 73 235 0.0 0.0 0.00 0.00 0.00 79 1011.5
20260901080017 73 235 0.0 0.0 0.00 0.00 0.00 79 1011.5
20260901074512 73 235 0.0 0.0 0.00 0.00 0.00 79 1011.6
20260901073010 74 235 0.0 0.0 0.00 0.00 0.00 78 1011.5
20260901071509 74 235 0.0 0.0 0.00 0.00 0.00 78 1011.5
20260901070008 74 235 0.0 0.0 0.00 0.00 0.00 78 1011.5
20260901064512 75 235 0.0 0.0 0.00 0.00 0.00 78 1011.6
20260901063012 75 235 0.0 0.0 0.00 0.00 0.00 77 1011.5
20260901061504 75 235 0.0 0.0 0.00 0.00 0.00 77 1011.6
20260901054559 76 235 0.0 0.0 0.00 0.00 0.00 78 1011.4
20260901053103 77 235 0.0 0.0 0.00 0.00 0.00 76 1011.4
20260901051554 77 235 0.0 0.0 0.00 0.00 0.00 76 1011.3
20260901050052 78 235 0.0 0.0 0.00 0.00 0.00 76 1011.3
20260901044551 78 235 0.0 0.0 0.00 0.00 0.00 74 1011.1
20260901043051 78 235 0.0 0.0 0.00 0.00 0.00 75 1011.1
20260901041553 79 235 0.0 0.0 0.00 0.00 0.00 73 1011.1
20260901040050 79 235 0.0 0.0 0.00 0.00 0.00 73 1010.9
20260901034550 80 235 0.0 0.0 0.00 0.00 0.00 72 1010.9
20260901033049 0 0.0 0.0 0.00 0.00 0.00 1010.9
20260901031544 0 0.0 0.0 0.00 0.00 0.00 1010.9
20260901030041 0 0.0 0.0 0.00 0.00 0.00 1010.7
20260901024536 0 0.0 0.0 0.00 0.00 0.00 1010.7
20260901023035 83 235 0.0 0.0 0.00 0.00 0.00 66 1010.7
20260901021535 84 235 0.0 0.0 0.00 0.00 0.00 65 1010.6
20260901020035 85 235 0.0 0.0 0.00 0.00 0.00 63 1010.4
20260901014536 86 235 0.0 0.0 0.00 0.00 0.00 62 1010.4
20260901013033 87 235 0.0 0.0 0.00 0.00 0.00 60 1010.2
20260901011536 89 235 0.0 0.0 0.00 0.00 0.00 59 1010.1
20260901010039 90 235 0.0 0.0 0.00 0.00 0.00 58 1010.0
20260901004532 92 235 0.0 0.0 0.00 0.00 0.00 57 1009.9
20260901003031 94 235 0.0 2.0 0.00 0.00 0.00 55 1009.8
20260901001532 96 235 0.0 1.0 0.00 0.00 0.00 54 1009.8
20260901000035 96 235 0.0 0.0 0.00 0.00 0.00 53 1009.8
20260831234526 97 235 0.0 0.0 0.00 0.00 0.00 51 1009.8
20260831233021 98 235 0.0 0.0 0.00 0.00 0.00 48 1009.8